Flag for Canada Weather past 2 weeks in Aklavik, Northwest Territories, Canada

Now
-20 °F

Passing clouds.


Feels Like: -34 °F
Forecast: -30 / -22 °F
Wind: 5 mph from Northwest

Location: Inuvik

Current Time: Jan 29, 2015 at 3:35:56 AM

Latest Report: Jan 29, 2015 at 3:00 AM


Visibility: 15 mi

Pressure: 30.54 "Hg

Humidity: 68%

Dew point: -27 °F

Location of AklavikLocation

Historic Weather in Aklavik — Graph

°F

Aklavik temperature yesterday

Maximum temperature yesterday: -18 °F (at 1:00 PM)
Minimum temperature yesterday: -27 °F (at 7:00 AM)
Average temperature yesterday: -23 °F

Past Weeks' High & Low Weather Summary

 TemperatureHumidityPressure
High0 °F (Jan 17, 10:00 AM)84% (Jan 16, 3:00 AM)30.53 "Hg (Jan 16, 3:00 AM)
Low-29 °F (Jan 27, 1:00 AM)57% (Jan 26, 6:00 PM)29.34 "Hg (Jan 16, 2:00 AM)
Average-11 °F76%29.89 "Hg
* Reported Jan 14 2:00 AM — Jan 29 2:00 AM, Aklavik, Weather by CustomWeather, © 2014

Note: Actual official high and low records may vary slightly from our data, if they occured in-between our weather recording intervals... More about our weather records

Advertising

Aklavik weather history for previous 24 hours

 ConditionsComfort  
Time TempWeatherWind HumidityBarometerVisibility
2:00 AM
Jan 29
-20 °FPassing clouds.3 mph75%30.53 "Hg15 mi
1:00 AM-20 °FPassing clouds.5 mph75%30.52 "Hg15 mi
12:00 AM-24 °FPassing clouds.3 mph75%30.51 "Hg15 mi
11:00 PM
Jan 28
-22 °FPassing clouds.6 mph75%30.50 "Hg15 mi
10:00 PM-22 °FPassing clouds.7 mph68%30.50 "Hg15 mi
9:00 PM-22 °FPassing clouds.5 mph68%30.50 "Hg15 mi
8:00 PM-24 °FPassing clouds.3 mph68%30.49 "Hg15 mi
7:00 PM-24 °FPassing clouds.2 mph75%30.49 "Hg15 mi
6:00 PM-27 °FScattered clouds.3 mph74%30.50 "Hg15 mi
5:00 PM-26 °FScattered clouds.5 mph75%30.50 "Hg15 mi
4:00 PM-22 °FBroken clouds.No wind68%30.49 "Hg15 mi
3:00 PM-22 °FScattered clouds.3 mph68%30.49 "Hg15 mi
2:00 PM-20 °FPartly sunny.6 mph75%30.47 "Hg15 mi
1:00 PM-18 °FPartly cloudy.6 mph69%30.47 "Hg15 mi
12:00 PM-20 °FPassing clouds.3 mph68%30.48 "Hg15 mi
11:00 AM-20 °FPassing clouds.2 mph68%30.47 "Hg15 mi
10:00 AM-22 °FPassing clouds.2 mph75%30.46 "Hg15 mi
9:00 AM-24 °FPassing clouds.7 mph75%30.47 "Hg15 mi
8:00 AM-26 °FSnow flurries. Clear.7 mph67%30.46 "Hg15 mi
7:00 AM-27 °FSnow flurries. Clear.2 mph74%30.46 "Hg15 mi
6:00 AM-24 °FSnow flurries. Clear.3 mph68%30.45 "Hg15 mi
5:00 AM-24 °FClear.3 mph75%30.45 "Hg15 mi
4:00 AM-24 °FSnow flurries. Clear.No wind68%30.44 "Hg15 mi
3:00 AM-24 °FSnow flurries. Clear.5 mph68%30.42 "Hg15 mi
Weather by CustomWeather, © 2014

See weather overviewHow to use our weather pages